Pasanauri

Georgia     42˚21′05″N   44˚41′20″E
temp.,
°C
wind,
m/s
gust,
m/s
humid.,
%
clouds,
%
prec.,
mm/h
press.,
hPa
HPBL,
m
2 december, wed
wed201:00−2˚nne237526 0.0 102639
04:00−2˚nne237329 0.0 102650
07:00−2˚nne237220 0.0 102746
10:00+1˚nne236334 0.0 102695
13:00+5˚sse115453 0.0 1025558
16:00+4˚s116937 0.0 102441
19:00−1˚nne22810 0.0 102623
22:00−1˚nne22752 0.0 102727
3 december, thu
thu301:00−1˚ne117680 0.0 102822
04:00−2˚ne117788 0.0 102823
07:00−2˚ne118038 0.0 102822
10:00e117219 0.0 1028130
13:00+3˚sse11670 0.0 1027522
16:00+2˚s22791 0.0 1026433
19:00−2˚se119635 0.0 102821
22:00−1˚sse119566 0.0 102899
4 december, fri
fri401:00−1˚se1193100 0.0 102987
04:00−1˚ese1193100 0.1 102877
07:00−1˚se1194100 0.0 102873
10:00se118598 0.0 1028207
13:00+2˚sse117471 0.0 1025611
16:00+1˚se117885 0.1 1025385
19:00−1˚sse118599 0.0 102638
22:00−1˚ese018998 0.0 102725
5 december, sat
sat501:00−1˚e0182100 0.0 102766
04:00−1˚ne0179100 0.1 102678
07:00−2˚n117897 0.0 102630
10:00−1˚ne116976 0.0 1026184
13:00+2˚sse116521 0.0 1024706
16:00+1˚s217242 0.0 1023617
19:00−1˚e018385 0.0 102522
22:00−1˚e118286 0.0 102627
6 december, sun
sun601:00−2˚ene118799 0.0 102636
04:00−2˚nne128398 0.0 102635
07:00−2˚nne127696 0.0 102633
10:00−1˚ne116998 0.0 1027269
13:00+2˚s117099 0.0 1025598
16:00+1˚s227899 0.1 1025519
19:00−2˚se119892 0.2 102763
22:00−2˚ene119296 0.4 1028148